South St. Paul, MN

2:25 AM CDT on April 28, 2017 (GMT -0500)
South Saint Paul Municipal-Fleming

Weather History for KSGS - September, 2013

Change the Weather History Date:

Tuesday, September 3, 2013

  Actual Average (KSTP) Record (KSTP)
Temperature  
Mean Temperature 64 °F -  
Max Temperature 77 °F 77 °F 91 °F (2012)
Min Temperature 52 °F 57 °F 50 °F (1997)
Growing Degree Days 14 (Base 50)    
Moisture  
Dew Point 54 °F    
Average Humidity 69    
Maximum Humidity 94    
Minimum Humidity 42    
Precipitation  
Precipitation 0.00 in - - ()
Sea Level Pressure  
Sea Level Pressure 30.06 in    
Wind  
Wind Speed 1 mph (WSW)    
Max Wind Speed 7 mph    
Max Gust Speed -    
Visibility 10 miles    
Events Fog    
Averages and records for this station are not official NWS values.
T = Trace of Precipitation, MM = Missing Value Source: NWS Daily Summary

Daily Weather History Graph

Daily Weather History Graph

Search for Another Location

Airport or City:

Trip Planner

Search our weather history database for the weather conditions in past years. The results will help you decide how hot, cold, wet, or windy it might be!

Date:

Astronomy

Sep. 03, 2013 Rise Set
Actual Time 6:36 AM CDT 7:44 PM CDT
Civil Twilight 6:06 AM CDT 8:14 PM CDT
Nautical Twilight 5:30 AM CDT 8:50 PM CDT
Astronomical Twilight 4:52 AM CDT 9:28 PM CDT
Moon 4:49 AM CDT (9/3) 6:33 PM CDT (9/3)
Length of Visible Light 14h 07m
Length of Day
13h 07m
Waning Crescent, 3% of the Moon is Illuminated
Sep 3
Waning Crescent
Sep 5
New
Sep 12
First Quarter
Sep 19
Full
Sep 26
Last Quarter

Hourly Weather History & Observations

Time (CDT) Temp. Dew Point Humidity Pressure Visibility Wind Dir Wind Speed Gust Speed Precip Events Conditions
12:12 AM 59.4 °F 53.1 °F 80% 30.07 in 10.0 mi Calm Calm - N/A   Clear
12:32 AM 58.8 °F 53.1 °F 81% 30.07 in 10.0 mi Calm Calm - N/A   Clear
12:52 AM 58.3 °F 52.7 °F 82% 30.06 in 10.0 mi Calm Calm - N/A   Clear
1:12 AM 57.2 °F 52.7 °F 85% 30.06 in 10.0 mi Calm Calm - N/A   Clear
1:32 AM 57.2 °F 52.5 °F 84% 30.07 in 10.0 mi Calm Calm - N/A   Clear
1:52 AM 57.4 °F 52.7 °F 84% 30.07 in 10.0 mi Calm Calm - N/A   Clear
2:12 AM 56.8 °F 52.2 °F 84% 30.07 in 10.0 mi Calm Calm - N/A   Clear
2:32 AM 55.8 °F 51.8 °F 87% 30.06 in 10.0 mi Calm Calm - N/A   Clear
2:52 AM 55.4 °F 51.6 °F 87% 30.07 in 10.0 mi Calm Calm - N/A   Clear
3:12 AM 55.2 °F 51.4 °F 87% 30.06 in 10.0 mi Calm Calm - N/A   Clear
3:32 AM 54.9 °F 51.4 °F 88% 30.07 in 10.0 mi Calm Calm - N/A   Clear
3:52 AM 55.2 °F 51.8 °F 88% 30.07 in 10.0 mi Calm Calm - N/A   Clear
4:12 AM 54.5 °F 51.3 °F 89% 30.07 in 10.0 mi Calm Calm - N/A   Clear
4:32 AM 54.3 °F 50.9 °F 88% 30.07 in 10.0 mi Calm Calm - N/A   Clear
4:52 AM 54.1 °F 50.9 °F 89% 30.07 in 10.0 mi Calm Calm - N/A   Clear
5:12 AM 53.1 °F 50.4 °F 91% 30.08 in 0.5 mi Calm Calm - N/A Fog Fog
5:32 AM 53.6 °F 51.4 °F 92% 30.08 in 10.0 mi Calm Calm - N/A   Scattered Clouds
5:52 AM 53.1 °F 51.1 °F 93% 30.08 in 10.0 mi Calm Calm - N/A   Clear
6:12 AM 52.7 °F 50.9 °F 94% 30.09 in 10.0 mi Calm Calm - N/A   Clear
6:32 AM 52.9 °F 50.9 °F 93% 30.10 in 10.0 mi Calm Calm - N/A   Clear
6:52 AM 52.9 °F 50.4 °F 91% 30.10 in 10.0 mi Calm Calm - N/A   Clear
7:12 AM 53.1 °F 50.2 °F 90% 30.10 in 10.0 mi Calm Calm - N/A   Clear
7:32 AM 54.0 °F 51.1 °F 90% 30.10 in 10.0 mi Calm Calm - N/A   Clear
7:52 AM 55.8 °F 52.5 °F 89% 30.10 in 10.0 mi Calm Calm - N/A   Clear
8:12 AM 57.2 °F 52.9 °F 85% 30.10 in 10.0 mi Calm Calm - N/A   Clear
8:32 AM 59.2 °F 53.8 °F 82% 30.10 in 10.0 mi West 5.8 mph - N/A   Clear
8:52 AM 59.9 °F 54.0 °F 81% 30.10 in 10.0 mi West 5.8 mph - N/A   Clear
9:12 AM 61.5 °F 54.0 °F 76% 30.10 in 10.0 mi West 5.8 mph - N/A   Clear
9:32 AM 62.1 °F 54.0 °F 75% 30.11 in 10.0 mi West 6.9 mph - N/A   Clear
9:52 AM 62.8 °F 53.8 °F 72% 30.11 in 10.0 mi WSW 3.5 mph - N/A   Clear
10:12 AM 64.6 °F 54.3 °F 69% 30.11 in 10.0 mi Calm Calm - N/A   Clear
10:32 AM 64.9 °F 53.8 °F 67% 30.10 in 10.0 mi West 3.5 mph - N/A   Clear
10:52 AM 66.2 °F 54.3 °F 65% 30.10 in 10.0 mi West 4.6 mph - N/A   Clear
11:12 AM 67.3 °F 54.0 °F 62% 30.10 in 10.0 mi WSW 5.8 mph - N/A   Clear
11:32 AM 68.0 °F 53.4 °F 60% 30.10 in 10.0 mi Calm Calm - N/A   Clear
11:52 AM 68.9 °F 54.3 °F 60% 30.09 in 10.0 mi WSW 4.6 mph - N/A   Clear
12:12 PM 69.3 °F 53.2 °F 57% 30.08 in 10.0 mi South 5.8 mph - N/A   Clear
12:32 PM 69.8 °F 52.7 °F 54% 30.07 in 10.0 mi SSW 5.8 mph - N/A   Clear
12:52 PM 71.1 °F 53.1 °F 53% 30.07 in 10.0 mi WSW 3.5 mph - N/A   Clear
1:12 PM 72.7 °F 52.9 °F 50% 30.07 in 10.0 mi SSW 4.6 mph - N/A   Clear
1:32 PM 72.5 °F 51.8 °F 48% 30.06 in 10.0 mi SSW 5.8 mph - N/A   Clear
1:52 PM 73.4 °F 52.3 °F 48% 30.06 in 10.0 mi SW 3.5 mph - N/A   Clear
2:12 PM 73.9 °F 51.4 °F 45% 30.05 in 10.0 mi SW 4.6 mph - N/A   Clear
2:32 PM 74.7 °F 51.8 °F 45% 30.04 in 10.0 mi South 4.6 mph - N/A   Clear
2:52 PM 74.8 °F 52.5 °F 46% 30.03 in 10.0 mi SSW 6.9 mph - N/A   Clear
3:12 PM 74.3 °F 53.4 °F 48% 30.03 in 10.0 mi WSW 6.9 mph - N/A   Clear
3:32 PM 75.4 °F 53.6 °F 47% 30.02 in 10.0 mi WSW 3.5 mph - N/A   Clear
3:52 PM 76.3 °F 52.3 °F 43% 30.02 in 10.0 mi West 3.5 mph - N/A   Clear
4:12 PM 76.3 °F 52.2 °F 43% 30.02 in 10.0 mi WNW 5.8 mph - N/A   Clear
4:32 PM 76.6 °F 52.9 °F 43% 30.01 in 10.0 mi WNW 3.5 mph - N/A   Clear
4:52 PM 77.4 °F 52.9 °F 42% 30.01 in 10.0 mi WNW 4.6 mph - N/A   Clear
5:12 PM 77.2 °F 52.9 °F 43% 30.02 in 10.0 mi WNW 3.5 mph - N/A   Clear
5:32 PM 76.6 °F 53.1 °F 44% 30.02 in 10.0 mi WSW 4.6 mph - N/A   Clear
5:52 PM 76.3 °F 53.2 °F 45% 30.02 in 10.0 mi WSW 4.6 mph - N/A   Clear
6:12 PM 76.3 °F 53.4 °F 45% 30.01 in 10.0 mi WSW 3.5 mph - N/A   Clear
6:32 PM 76.1 °F 54.3 °F 47% 30.01 in 10.0 mi SW 4.6 mph - N/A   Clear
6:52 PM 75.6 °F 55.2 °F 49% 30.01 in 10.0 mi Calm Calm - N/A   Clear
7:12 PM 74.7 °F 56.3 °F 53% 30.01 in 10.0 mi Calm Calm - N/A   Clear
7:32 PM 74.3 °F 56.5 °F 54% 30.01 in 10.0 mi Calm Calm - N/A   Clear
7:52 PM 71.1 °F 59.2 °F 66% 30.01 in 10.0 mi Calm Calm - N/A   Clear
8:12 PM 70.3 °F 58.3 °F 66% 30.01 in 10.0 mi Calm Calm - N/A   Clear
8:32 PM 68.9 °F 57.6 °F 67% 30.00 in 10.0 mi Calm Calm - N/A   Clear
8:52 PM 68.7 °F 58.1 °F 69% 30.02 in 10.0 mi Calm Calm - N/A   Clear
9:12 PM 68.0 °F 58.8 °F 72% 30.01 in 10.0 mi Calm Calm - N/A   Clear
9:32 PM 67.3 °F 58.5 °F 73% 30.01 in 10.0 mi Calm Calm - N/A   Clear
9:52 PM 67.3 °F 58.1 °F 72% 30.02 in 10.0 mi Calm Calm - N/A   Clear
10:12 PM 67.3 °F 58.1 °F 72% 30.02 in 10.0 mi Calm Calm - N/A   Clear
10:32 PM 66.7 °F 57.6 °F 72% 30.02 in 10.0 mi Calm Calm - N/A   Clear
10:52 PM 66.2 °F 58.1 °F 75% 30.02 in 10.0 mi Calm Calm - N/A   Clear
11:12 PM 66.4 °F 57.6 °F 73% 30.02 in 10.0 mi Calm Calm - N/A   Clear
11:32 PM 63.9 °F 57.2 °F 79% 30.01 in 10.0 mi South 3.5 mph - N/A   Clear
11:52 PM 64.8 °F 58.3 °F 79% 30.03 in 10.0 mi Calm Calm - N/A   Clear